When you browse on this site, cookies collect data to enhance your experience and personalize the content and advertising you see.
Visit our Privacy Policy to learn more. By continuing to use the site, you agree to this use of cookies and data.
  • In Hungary
  • List of Countries
  • For 7 days
  • Water Temperature
  • Satellite Maps
  • Weather Map
  • News
  • Weather Widgets
  • user-avatar
    Login

    Hourly Weather Reszow

    Today, 26 May, Sunday

    Time Temperature Precipitation Wind Pressure Humidity
    00:00 +11°C° 0 mm 1 mps 752 mmHg 90%
    01:00 +11°C° 0 mm 1 mps 752 mmHg 92%
    02:00 +10°C° 0 mm 1 mps 752 mmHg 93%
    03:00 +9°C° 0 mm 2 mps 752 mmHg 94%
    04:00 +8°C° 0 mm 2 mps 752 mmHg 95%
    05:00 +10°C° 0 mm 2 mps 752 mmHg 89%
    06:00 +13°C° 0 mm 2 mps 752 mmHg 83%
    07:00 +13°C° 0 mm 3 mps 752 mmHg 78%
    08:00 +16°C° 0 mm 3 mps 752 mmHg 71%
    09:00 +17°C° 0 mm 3 mps 752 mmHg 65%
    10:00 +19°C° 0 mm 4 mps 752 mmHg 59%
    11:00 +20°C° 0 mm 4 mps 751 mmHg 56%
    12:00 +21°C° 0 mm 4 mps 751 mmHg 53%
    13:00 +22°C° 0 mm 5 mps 750 mmHg 50%
    14:00 +22°C° 0 mm 5 mps 750 mmHg 51%
    15:00 +22°C° 0 mm 5 mps 750 mmHg 52%
    16:00 +23°C° 0 mm 5 mps 749 mmHg 52%
    17:00 +21°C° 0 mm 4 mps 749 mmHg 58%
    18:00 +20°C° 0 mm 3 mps 749 mmHg 64%
    19:00 +19°C° 0 mm 2 mps 749 mmHg 70%
    20:00 +18°C° 0 mm 2 mps 749 mmHg 74%
    21:00 +17°C° 0 mm 2 mps 749 mmHg 77%
    22:00 +15°C° 0 mm 2 mps 749 mmHg 80%
    23:00 +15°C° 0 mm 2 mps 749 mmHg 81%

    Tomorrow, 27 May, Monday

    Time Temperature Precipitation Wind Pressure Humidity
    00:00 +14°C° 0 mm 3 mps 749 mmHg 83%
    01:00 +13°C° 0 mm 3 mps 748 mmHg 84%
    02:00 +13°C° 0 mm 3 mps 748 mmHg 85%
    03:00 +13°C° 0 mm 3 mps 748 mmHg 86%
    04:00 +13°C° 0 mm 3 mps 748 mmHg 87%
    05:00 +14°C° 0 mm 3 mps 748 mmHg 81%
    06:00 +17°C° 0 mm 4 mps 748 mmHg 75%
    07:00 +19°C° 0 mm 4 mps 747 mmHg 69%
    08:00 +20°C° 0 mm 4 mps 747 mmHg 64%
    09:00 +21°C° 0 mm 4 mps 747 mmHg 59%
    10:00 +23°C° 0 mm 5 mps 747 mmHg 54%
    11:00 +25°C° 0 mm 4 mps 747 mmHg 52%
    12:00 +25°C° 0 mm 4 mps 747 mmHg 50%
    13:00 +26°C° 0 mm 4 mps 747 mmHg 48%
    14:00 +25°C° 0.4 mm 4 mps 747 mmHg 54%
    15:00 +25°C° 0.4 mm 4 mps 747 mmHg 60%
    16:00 +23°C° 0.4 mm 4 mps 746 mmHg 67%
    17:00 +22°C° 0.6 mm 3 mps 746 mmHg 72%
    18:00 +21°C° 0.6 mm 2 mps 746 mmHg 78%
    19:00 +20°C° 0.6 mm 1 mps 746 mmHg 83%
    20:00 +20°C° 0.2 mm 1 mps 746 mmHg 84%
    21:00 +19°C° 0.2 mm 1 mps 746 mmHg 86%
    22:00 +18°C° 0.2 mm 1 mps 746 mmHg 88%
    23:00 +16°C° 0.7 mm 1 mps 746 mmHg 90%

    Day after tomorrow, 28 May, Tuesday

    Time Temperature Precipitation Wind Pressure Humidity
    00:00 +16°C° 0.7 mm 1 mps 746 mmHg 92%
    01:00 +16°C° 0.7 mm 1 mps 745 mmHg 94%
    02:00 +16°C° 1.7 mm 1 mps 745 mmHg 95%
    03:00 +15°C° 1.7 mm 1 mps 744 mmHg 96%
    04:00 +15°C° 1.7 mm 1 mps 744 mmHg 97%
    05:00 +15°C° 2.5 mm 2 mps 744 mmHg 97%
    06:00 +15°C° 2.5 mm 2 mps 744 mmHg 97%
    07:00 +14°C° 2.5 mm 3 mps 744 mmHg 97%
    08:00 +14°C° 1.4 mm 3 mps 744 mmHg 96%
    09:00 +14°C° 1.4 mm 4 mps 744 mmHg 96%
    10:00 +14°C° 1.4 mm 5 mps 744 mmHg 95%
    11:00 +13°C° 0.9 mm 5 mps 744 mmHg 94%
    12:00 +13°C° 0.9 mm 5 mps 744 mmHg 94%
    13:00 +13°C° 0.9 mm 5 mps 744 mmHg 93%
    14:00 +13°C° 0.5 mm 5 mps 744 mmHg 93%
    15:00 +13°C° 0.5 mm 5 mps 744 mmHg 93%
    16:00 +12°C° 0.5 mm 4 mps 745 mmHg 93%
    17:00 +12°C° 0.3 mm 4 mps 745 mmHg 93%
    18:00 +12°C° 0.3 mm 3 mps 745 mmHg 94%
    19:00 +12°C° 0.3 mm 3 mps 745 mmHg 94%
    20:00 +11°C° 0 mm 3 mps 746 mmHg 95%
    21:00 +12°C° 0 mm 2 mps 746 mmHg 96%
    22:00 +10°C° 0 mm 2 mps 747 mmHg 97%
    23:00 +10°C° 0 mm 2 mps 747 mmHg 97%

    29 May, Wednesday

    Time Temperature Precipitation Wind Pressure Humidity
    00:00 +10°C° 0 mm 2 mps 747 mmHg 97%
    01:00 +10°C° 0 mm 2 mps 747 mmHg 97%
    02:00 +10°C° 0 mm 2 mps 748 mmHg 98%
    03:00 +9°C° 0 mm 2 mps 748 mmHg 98%
    04:00 +9°C° 0 mm 2 mps 748 mmHg 98%
    05:00 +10°C° 0 mm 2 mps 748 mmHg 96%
    06:00 +10°C° 0 mm 2 mps 749 mmHg 94%
    07:00 +12°C° 0 mm 2 mps 749 mmHg 91%
    08:00 +13°C° 0 mm 2 mps 749 mmHg 82%
    09:00 +14°C° 0 mm 3 mps 750 mmHg 73%
    10:00 +16°C° 0 mm 3 mps 750 mmHg 64%
    11:00 +17°C° 0 mm 3 mps 750 mmHg 61%
    12:00 +17°C° 0 mm 3 mps 750 mmHg 58%
    13:00 +18°C° 0 mm 3 mps 750 mmHg 55%
    14:00 +18°C° 0 mm 3 mps 751 mmHg 57%
    15:00 +18°C° 0 mm 2 mps 751 mmHg 60%
    16:00 +18°C° 0 mm 2 mps 751 mmHg 62%
    17:00 +17°C° 0 mm 2 mps 751 mmHg 67%
    18:00 +16°C° 0 mm 1 mps 752 mmHg 72%
    19:00 +15°C° 0 mm 1 mps 752 mmHg 77%
    20:00 +14°C° 0.1 mm 1 mps 753 mmHg 80%
    21:00 +13°C° 0.1 mm 2 mps 753 mmHg 83%
    22:00 +11°C° 0.1 mm 3 mps 754 mmHg 87%
    23:00 +11°C° 0 mm 3 mps 754 mmHg 86%

    30 May, Thursday

    Time Temperature Precipitation Wind Pressure Humidity
    00:00 +10°C° 0 mm 3 mps 754 mmHg 85%
    01:00 +9°C° 0 mm 3 mps 754 mmHg 84%
    02:00 +8°C° 0 mm 3 mps 755 mmHg 84%
    03:00 +8°C° 0 mm 2 mps 755 mmHg 84%
    04:00 +7°C° 0 mm 2 mps 755 mmHg 84%
    05:00 +8°C° 0 mm 3 mps 756 mmHg 82%
    06:00 +8°C° 0 mm 3 mps 756 mmHg 80%
    07:00 +9°C° 0 mm 3 mps 756 mmHg 78%
    08:00 +9°C° 0 mm 3 mps 757 mmHg 74%
    09:00 +10°C° 0 mm 3 mps 757 mmHg 69%
    10:00 +11°C° 0 mm 3 mps 757 mmHg 65%
    11:00 +14°C° 0 mm 2 mps 757 mmHg 62%
    12:00 +15°C° 0 mm 2 mps 757 mmHg 60%
    13:00 +16°C° 0 mm 1 mps 757 mmHg 57%
    14:00 +16°C° 0 mm 2 mps 757 mmHg 56%
    15:00 +17°C° 0 mm 2 mps 757 mmHg 56%
    16:00 +17°C° 0 mm 2 mps 757 mmHg 55%
    17:00 +16°C° 0 mm 2 mps 757 mmHg 61%
    18:00 +15°C° 0 mm 2 mps 757 mmHg 67%
    19:00 +14°C° 0 mm 2 mps 757 mmHg 73%
    20:00 +13°C° 0 mm 2 mps 757 mmHg 76%
    21:00 +12°C° 0 mm 2 mps 758 mmHg 79%
    22:00 +10°C° 0 mm 2 mps 758 mmHg 83%
    23:00 +10°C° 0 mm 2 mps 758 mmHg 81%

    31 May, Friday

    Time Temperature Precipitation Wind Pressure Humidity
    00:00 +10°C° 0 mm 2 mps 758 mmHg 80%
    01:00 +10°C° 0 mm 2 mps 758 mmHg 79%
    02:00 +10°C° 0.1 mm 2 mps 758 mmHg 79%
    03:00 +10°C° 0.1 mm 2 mps 758 mmHg 80%
    04:00 +10°C° 0.1 mm 2 mps 759 mmHg 80%
    05:00 +12°C° 0 mm 2 mps 759 mmHg 80%
    06:00 +12°C° 0 mm 3 mps 759 mmHg 80%
    07:00 +13°C° 0 mm 3 mps 759 mmHg 81%
    08:00 +14°C° 0 mm 3 mps 760 mmHg 74%
    09:00 +16°C° 0 mm 3 mps 760 mmHg 68%
    10:00 +18°C° 0 mm 3 mps 760 mmHg 61%
    11:00 +18°C° 0 mm 2 mps 760 mmHg 59%
    12:00 +18°C° 0 mm 2 mps 760 mmHg 57%
    13:00 +19°C° 0 mm 2 mps 760 mmHg 55%
    14:00 +19°C° 0 mm 2 mps 760 mmHg 54%
    15:00 +19°C° 0 mm 2 mps 760 mmHg 54%
    16:00 +20°C° 0 mm 2 mps 759 mmHg 53%
    17:00 +20°C° 0 mm 1 mps 759 mmHg 58%
    18:00 +19°C° 0 mm 1 mps 759 mmHg 63%
    19:00 +18°C° 0 mm 1 mps 759 mmHg 68%
    20:00 +16°C° 0 mm 1 mps 760 mmHg 71%
    21:00 +15°C° 0 mm 2 mps 760 mmHg 74%
    22:00 +14°C° 0 mm 2 mps 760 mmHg 78%
    23:00 +14°C° 0 mm 2 mps 760 mmHg 81%
    Show more